Weather in Ordzhonikidze

Russia / Krasnoyarsk Krai     58°27′19″N   95°27′11″E
temp.,
°C
wind,
m/s
gust,
m/s
humid.,
%
clouds,
%
prec.,
mm/h
press.,
hPa
HPBL,
m
9 may, sun
sun901:00+4n1186100 0.1 101033
04:00+3nw128999 0.0 101195
07:00+3n2491100 0.1 1012446
10:00+4nne2590100 0.1 1013590
13:00+7ne247082 0.3 1014942
16:00+9ne4562100 0.4 10141268
19:00+7nne3871100 0.6 1016694
22:00+5n2585100 0.0 1018177
10 may, mon
mon1001:00+5n228723 0.0 101982
04:00+2n22965 0.0 102027
07:00+6nne26765 0.0 1021305
10:00+12nne37495 0.0 10211538
13:00+15ne463299 0.0 10212741
16:00+16nne453388 0.0 10212385
19:00+13n255276 0.0 1022344
22:00+7n11705 0.0 102210
11 may, tue
tue1101:00+6nne117746 0.0 102211
04:00+5n118359 0.0 102211
07:00+8nne127194 0.0 1022209
10:00+12ne2255100 0.0 1020932
13:00+14nne3247100 0.4 10191572
16:00+11ne4470100 1.1 10201277
19:00+7ene488180 1.6 1021664
22:00+5ene4776100 0.0 1022857
12 may, wed
wed1201:00+4ne388591 0.0 1022373
04:00+2ne310785 0.0 1022367
07:00+3ene48645 0.0 1023547
10:00+8ene46395 0.0 10211464
13:00+11ene45325 0.0 10202017
16:00+12ene352862 0.0 10182492
19:00+11ene24345 0.0 1019475
22:00+4ese11525 0.0 102010
13 may, thu
thu1301:00+2sse11590 0.0 102110
04:00+1ssw11630 0.0 102110
07:00+6sw12470 0.0 1020220
10:00+11wsw44338 0.0 10191373
13:00+14sw452869 0.0 10162151
16:00+15sw572756 0.0 10132413
19:00+12sw4835100 0.0 1011684
22:00+9s3949100 0.0 1009273